St. Petersburg Airport, FL

1:00 AM EST on November 19, 2017 (GMT -0500)
Saint Petersburg-Clearwater International

Weather History for KPIE - January, 2002

Change the Weather History Date:

Saturday, January 5, 2002

  Actual Average Record
Temperature  
Mean Temperature 52 °F -  
Max Temperature 61 °F 69 °F 82 °F (1950)
Min Temperature 42 °F 54 °F 32 °F (2001)
Degree Days  
Heating Degree Days 14    
Growing Degree Days 2 (Base 50)    
Moisture  
Dew Point 45 °F    
Average Humidity 82    
Maximum Humidity 100    
Minimum Humidity 67    
Precipitation  
Precipitation 0.00 in - - ()
Sea Level Pressure  
Sea Level Pressure 30.24 in    
Wind  
Wind Speed 5 mph (ENE)    
Max Wind Speed 13 mph    
Max Gust Speed -    
Visibility 10 miles    
Events      
Averages and records for this station are not official NWS values.
T = Trace of Precipitation, MM = Missing Value Source: NWS Daily Summary

Daily Weather History Graph

Daily Weather History Graph

Search for Another Location

Airport or City:

Trip Planner

Search our weather history database for the weather conditions in past years. The results will help you decide how hot, cold, wet, or windy it might be!

Date:

Astronomy

Jan. 05, 2002 Rise Set
Actual Time 7:22 AM EST 5:49 PM EST
Civil Twilight 6:57 AM EST 6:15 PM EST
Nautical Twilight 6:28 AM EST 6:44 PM EST
Astronomical Twilight 5:59 AM EST 7:12 PM EST
Moon No Moon Rise 12:13 PM EST (1/5)
Length of Visible Light 11h 17m
Length of Day
10h 26m
Waning Gibbous, 55% of the Moon is Illuminated
Jan 5
Waning Gibbous
Jan 5
Last Quarter
Jan 13
New
Jan 21
First Quarter
Jan 28
Full

Hourly Weather History & Observations

Time (EST) Temp. Windchill Dew Point Humidity Pressure Visibility Wind Dir Wind Speed Gust Speed Precip Events Conditions
12:53 AM 42.1 °F 38.4 °F 37.9 °F 85% 30.35 in 10.0 mi North 5.8 mph - N/A   Clear
1:53 AM 43.0 °F 39.5 °F 37.9 °F 82% 30.33 in 10.0 mi ENE 5.8 mph - N/A   Clear
2:53 AM 42.1 °F 39.2 °F 37.9 °F 85% 30.34 in 10.0 mi NE 4.6 mph - N/A   Clear
3:53 AM 42.1 °F 38.4 °F 37.0 °F 82% 30.33 in 10.0 mi ENE 5.8 mph - N/A   Clear
4:53 AM 42.1 °F 37.7 °F 39.0 °F 89% 30.32 in 10.0 mi East 6.9 mph - N/A   Clear
5:53 AM 42.1 °F 38.4 °F 37.9 °F 85% 30.32 in 10.0 mi ENE 5.8 mph - N/A   Clear
6:53 AM 43.0 °F 39.5 °F 37.0 °F 80% 30.33 in 10.0 mi NE 5.8 mph - N/A   Clear
7:53 AM 43.0 °F 38.8 °F 37.0 °F 80% 30.34 in 10.0 mi NE 6.9 mph - N/A   Clear
8:53 AM 46.0 °F 42.5 °F 37.9 °F 73% 30.35 in 10.0 mi ENE 6.9 mph - N/A   Clear
9:53 AM 48.0 °F - 39.0 °F 71% 30.37 in 10.0 mi NE 5.8 mph - N/A   Clear
10:53 AM 51.1 °F - 42.1 °F 71% 30.34 in 10.0 mi NE 5.8 mph - N/A   Clear
11:53 AM 54.0 °F - 45.0 °F 72% 30.31 in 10.0 mi Calm Calm - N/A   Clear
12:53 PM 55.9 °F - 46.9 °F 72% 30.26 in 10.0 mi East 6.9 mph - N/A   Overcast
1:53 PM 59.0 °F - 48.9 °F 69% 30.21 in 10.0 mi East 6.9 mph - N/A   Clear
2:53 PM 61.0 °F - 50.0 °F 67% 30.19 in 10.0 mi Variable 3.5 mph - N/A   Clear
3:53 PM 60.1 °F - 50.0 °F 69% 30.17 in 10.0 mi NE 5.8 mph - N/A   Clear
4:53 PM 60.1 °F - 51.1 °F 72% 30.16 in 10.0 mi Calm Calm - N/A   Clear
5:53 PM 55.9 °F - 53.1 °F 90% 30.15 in 10.0 mi Calm Calm - N/A   Clear
6:53 PM 51.8 °F - 51.8 °F 100% 30.14 in 10.0 mi Calm Calm - N/A   Clear
7:53 PM 51.8 °F - 51.8 °F 100% 30.13 in 10.0 mi Calm Calm - N/A   Clear
8:53 PM 52.0 °F - 52.0 °F 100% 30.13 in 9.0 mi Calm Calm - N/A   Clear
9:53 PM 50.0 °F - 48.9 °F 96% 30.12 in 5.0 mi SE 3.5 mph - N/A   Clear
10:53 PM 55.9 °F - 54.0 °F 93% 30.09 in 10.0 mi SSE 8.1 mph - N/A   Clear
11:53 PM 57.0 °F - 53.1 °F 87% 30.06 in 10.0 mi SSE 12.7 mph - N/A   Partly Cloudy